Regional Weather Roundup
Issued by NWS Cleveland, OH

Home | Current Version | Previous Version | Text Only | Print | Product List | Glossary Off
Versions: 1 2 3 4 5 6 7 8 9 10 11 12 13 14 15 16 17 18 19 20 21 22 23 24 25 26 27 28 29 30 31 32 33 34 35 36 37 38 39 40 41 42 43 44 45 46 47 48 49 50

000
ASUS41 KCLE 130100
RWRCLE
OHIO REGIONAL WEATHER ROUNDUP
NATIONAL WEATHER SERVICE WILMINGTON, OH
800 PM EST FRI FEB 12 2016

NOTE: "FAIR" INDICATES FEW OR NO CLOUDS BELOW 12,000 FEET WITH NO
SIGNIFICANT WEATHER AND/OR OBSTRUCTIONS TO VISIBILITY.

OHZ001>008-015>018-024>027-034-035-043-044-130200-
   NORTHWEST OHIO

CITY           SKY/WX    TMP DP  RH WIND       PRES   REMARKS
DEFIANCE       MOCLDY    18   9  68 NW13      30.15R WCI   5
FINDLAY        FAIR      18   8  65 W17G26    30.11R WCI   3
TOLEDO EXPRESS MOCLDY    16   8  71 NW13      30.11R WCI   2
TOLEDO EXEC    MOCLDY    17   9  70 NW15      30.11R WCI   2
LIMA           FAIR      17  10  74 NW18      30.12R WCI   1
$$

OHZ009>014-019>023-028>033-038-089-130200-
   NORTHEAST OHIO

CITY           SKY/WX    TMP DP  RH WIND       PRES   REMARKS
CLE-HOPKINS    LGT SNOW  20  11  68 NW17      30.03R WCI   5
CLE-LAKEFRONT  MOCLDY    23  12  62 NW28G37   29.99R WCI   6
CUY CO. ARPT   FLURRIES  21  12  68 NW20G30   29.98R WCI   6
LORAIN-ELYRIA  SNOW      17  13  84 N22G35    30.03R VSB 1/2 WCI   0
ASHTABULA      LGT SNOW  19  13  77 NW16G26   29.94R WCI   4
AKRON-CANTON   LGT SNOW  18  14  84 NW17G29   29.96R FOG     WCI   3
WOOSTER        LGT SNOW  18  12  79 NW17G25   30.00R WCI   2
MANSFIELD      MOCLDY    16   8  71 W12G22    30.02R WCI   3
YOUNGSTOWN     LGT SNOW  19  14  81 SW16      29.92R VSB 3/4 WCI   4
$$

OHZ042-051>053-060>062-070>072-077>081-130200-
  SOUTHWEST OHIO

CITY           SKY/WX    TMP DP  RH WIND       PRES   REMARKS
CINC-COVINGTON LGT SNOW  24  16  71 W26G36    30.18R WCI   8
CINC-LUNKEN    LGT SNOW  24  20  84 NW12G32   30.22R FOG     WCI  13
HAMILTON       FAIR      23  14  68 NW18      30.21R WCI   9
DAYTON         NOT AVBL
WRIGHT-PAT AFB NOT AVBL
DAYTON GENERAL FAIR      21  10  62 NW17G23   30.15R WCI   7
WILMINGTON     LGT SNOW  21  14  74 NW18G32   30.12R WCI   6
$$

OHZ036-037-039>041-045>050-054>059-063>069-073>076-082>088-130200-
  CENTRAL AND SOUTHEAST OHIO

CITY           SKY/WX    TMP DP  RH WIND       PRES   REMARKS
COLUMBUS       LGT SNOW  20  12  71 NW18G26   30.09R FOG     WCI   5
OSU AIRPORT    LGT SNOW  19  11  70 NW24G30   30.09R WCI   2
BOLTON FIELD   NOT AVBL
RICKENBACK AFB NOT AVBL
NEWARK         LGT SNOW  22  13  68 NW24G38   30.06R WCI   5
MARION         LGT SNOW  18  10  71 NW23G29   30.09R WCI   0
LANCASTER      LGT SNOW  23  17  78 NW18G25   30.09R WCI   9
ZANESVILLE     FLURRIES  23  17  78 SW8       30.03S WCI  14
NEW PHILLY     MOCLDY    20  16  84 W7        30.01S WCI  11
$$



USA.gov is the U.S. government's official web portal to all federal, state and local government web resources and services.